Location: Poughquag
(41.6090°N, 73.6820°W)
Time: 01:44:09
(UTC-04:00)

Transit 2A Rocket - Pass Details

Date: 02 June 2020
Orbit: 584 x 919 km, 66.7° (Epoch: 06 July)

Event Time Altitude Azimuth Distance (km) Brightness Sun altitude
Rises 21:41:08 0° 187° (S) 3,013 - -12.2°
Exits shadow 21:42:48 - 182° (S) 2,389 7.2 -12.4°
Reaches altitude 10° 21:43:28 10° 179° (S) 2,153 6.9 -12.5°
Maximum altitude 21:48:01 39° 111° (ESE) 1,109 5.4 -13.1°
Drops below altitude 10° 21:53:02 10° 44° (NE) 2,377 7.6 -13.7°
Sets 21:55:42 0° 37° (NE) 3,367 8.5 -14.0°
